User: anonymous   Login
Location: Ay?beleni
(36.6500°N, 30.3000°E)
Time: 00:52:34
(UTC+00:00)
Language:

HJ-1C - Orbit

View from above orbital plane
View from above orbital plane
View from above satellite
View from above satellite

Ground track
Ground track

The orbit data is extracted from the following two-line orbital elements,

1 38997U 12064A   20188.57532392  .00001390  00000-0  34116-4 0  9996
2 38997  97.1521 218.3587 0008190 304.8423 206.3249 15.42367619428733
Epoch (UTC): 06 July 2020 13:48:27
Eccentricity: 0.0008190
inclination: 97.1521°
perigee height: 433 km
apogee height: 445 km
right ascension of ascending node: 218.3587°
argument of perigee: 304.8423°
revolutions per day: 15.42367619
mean anomaly at epoch: 206.3249°
orbit number at epoch: 42873

The dashed part of the orbit path shows where the satellite is in the earth's shadow,  

DLR